Back to catalog

HULIANWANG DIGUI-17

AliveCommunicationsLEO
NORAD 62977·PAYLOAD·🇨🇳 China

Launched Feb 11, 2025 from Wenchang Space Launch Site

Loading…

Next Passes (next 24 hours)

TLE

FreshSource: Space-Track

Epoch: Sep 14, 2026, 13:45 UTC

1 62977U 25030G   26257.57355260 -.00000095  00000-0  61871-4 0  9998
2 62977  50.0054 275.0205 0000483  26.6835 333.4062 13.29328256 77751

Track HULIANWANG DIGUI-17 in real time with AllMySat

Download on the App Store